GW6581 Weather Reports


Display with metric or nautical units.
time (UTC)temp
F
wind
direction
speed
MPH
gust
MPH
rain 1hr
in
rain 24hr
in
rain mn
in
humidity
%
barometer
mb
20260510075047 62 140 6.0 8.0 0.00 0.00 0.00 82 1014.0
20260510074543 62 177 6.0 8.0 0.00 0.00 0.00 82 1014.0
20260510074043 62 207 5.0 5.0 0.00 0.00 0.00 81 1014.0
20260510073543 62 134 4.0 5.0 0.00 0.00 0.00 82 1014.0
20260510073042 62 108 4.0 7.0 0.00 0.00 0.00 82 1014.0
20260510072543 62 62 5.0 5.0 0.00 0.00 0.00 82 1014.0
20260510072042 61 150 4.0 6.0 0.00 0.00 0.00 82 1014.0
20260510071543 61 218 2.0 8.0 0.00 0.00 0.00 82 1014.0
20260510071042 62 200 3.0 6.0 0.00 0.00 0.00 81 1014.0
20260510070543 61 191 3.0 4.0 0.00 0.00 0.00 81 1014.0
20260510070042 61 175 3.0 5.0 0.00 0.00 0.00 81 1014.0
20260510065542 61 126 2.0 5.0 0.00 0.00 0.00 81 1014.0
20260510065042 61 160 5.0 5.0 0.00 0.00 0.00 81 1014.0
20260510064542 61 214 2.0 3.0 0.00 0.00 0.00 82 1014.0
20260510064043 61 134 0.0 2.0 0.00 0.00 0.00 83 1014.0
20260510063542 61 330 0.0 0.0 0.00 0.00 0.00 84 1014.0
20260510063043 60 166 1.0 1.0 0.00 0.00 0.00 85 1014.0
20260510062542 60 208 0.0 1.0 0.00 0.00 0.00 86 1014.0
20260510062042 59 173 0.0 0.0 0.00 0.00 0.00 86 1014.0
20260510061546 59 137 0.0 2.0 0.00 0.00 0.00 87 1014.0
20260510061042 59 209 2.0 3.0 0.00 0.00 0.00 87 1014.0
20260510060542 59 217 2.0 2.0 0.00 0.00 0.00 87 1014.0
20260510060042 58 189 1.0 2.0 0.00 0.00 0.00 87 1014.0
20260510055542 58 203 0.0 2.0 0.00 0.00 0.00 88 1014.0
20260510055043 58 218 1.0 2.0 0.00 0.00 0.00 88 1014.0
20260510054543 58 176 3.0 3.0 0.00 0.00 0.00 88 1014.0
20260510054043 58 194 0.0 3.0 0.00 0.00 0.00 88 1014.0
20260510053542 58 190 1.0 2.0 0.00 0.00 0.00 88 1014.0
20260510053042 58 322 0.0 2.0 0.00 0.00 0.00 88 1014.0
20260510052543 58 177 0.0 2.0 0.00 0.00 0.00 88 1014.0
20260510052042 58 238 2.0 2.0 0.00 0.00 0.00 88 1014.0
20260510051542 58 215 1.0 2.0 0.00 0.00 0.00 88 1014.0
20260510051042 58 219 0.0 1.0 0.00 0.00 0.00 88 1014.0
20260510050543 58 173 0.0 2.0 0.00 0.00 0.00 88 1014.0
20260510050042 58 159 0.0 2.0 0.00 0.00 0.00 88 1014.0
20260510045542 58 183 1.0 2.0 0.00 0.00 0.00 88 1014.0
20260510045045 58 143 0.0 2.0 0.00 0.00 0.00 88 1014.0
20260510044542 58 178 0.0 1.0 0.00 0.00 0.00 88 1014.0
20260510044043 57 181 0.0 2.0 0.00 0.00 0.00 88 1013.0
20260510043543 57 121 0.0 1.0 0.00 0.00 0.00 88 1014.0
20260510043042 58 90 0.0 1.0 0.00 0.00 0.00 88 1014.0
20260510042544 58 147 0.0 0.0 0.00 0.00 0.00 88 1014.0
20260510042043 58 173 0.0 0.0 0.00 0.00 0.00 87 1013.0
20260510041543 58 173 0.0 1.0 0.00 0.00 0.00 87 1014.0
20260510041043 58 173 0.0 2.0 0.00 0.00 0.00 87 1014.0
20260510040542 58 353 0.0 1.0 0.00 0.00 0.00 87 1014.0
20260510040042 58 7 0.0 3.0 0.00 0.00 0.00 88 1014.0
20260510035542 58 243 0.0 2.0 0.00 0.00 0.00 88 1014.0
20260510035043 58 305 0.0 3.0 0.00 0.00 0.00 88 1014.0
20260510034542 57 39 0.0 2.0 0.00 0.00 0.00 88 1014.0
20260510034042 57 218 2.0 2.0 0.00 0.00 0.00 88 1014.0
20260510033542 57 231 2.0 3.0 0.00 0.00 0.00 88 1014.0
20260510033042 57 195 2.0 3.0 0.00 0.00 0.00 88 1014.0
20260510032543 57 175 3.0 3.0 0.00 0.00 0.00 88 1014.0
20260510032042 58 181 1.0 3.0 0.00 0.00 0.00 88 1014.0
20260510031542 57 244 2.0 3.0 0.00 0.00 0.00 88 1014.0
20260510031042 57 209 0.0 1.0 0.00 0.00 0.00 88 1014.0
20260510030542 57 165 0.0 2.0 0.00 0.00 0.00 88 1014.0
20260510030043 57 263 1.0 3.0 0.00 0.00 0.00 88 1014.0
20260510025542 57 217 0.0 3.0 0.00 0.00 0.00 88 1014.0
20260510025043 57 227 2.0 3.0 0.00 0.00 0.00 88 1014.0
20260510024542 57 263 0.0 2.0 0.00 0.00 0.00 88 1014.0
20260510024044 57 227 2.0 3.0 0.00 0.00 0.00 88 1014.0
20260510023542 57 277 2.0 2.0 0.00 0.00 0.00 89 1014.0
20260510023042 57 240 1.0 2.0 0.00 0.00 0.00 89 1014.0
20260510022542 57 6 2.0 2.0 0.00 0.00 0.00 89 1014.0
20260510022042 57 287 0.0 1.0 0.00 0.00 0.00 89 1014.0
20260510021542 57 213 1.0 3.0 0.00 0.00 0.00 89 1014.0
20260510021042 57 201 3.0 3.0 0.00 0.00 0.00 89 1014.0
20260510020543 57 237 3.0 3.0 0.00 0.00 0.00 89 1014.0
20260510020042 57 274 0.0 1.0 0.00 0.00 0.00 89 1014.0
20260510015544 57 203 3.0 3.0 0.00 0.00 0.00 89 1014.0
20260510015042 57 260 2.0 3.0 0.00 0.00 0.00 89 1014.0
20260510014543 56 240 2.0 3.0 0.00 0.00 0.00 89 1014.0
20260510014042 56 194 1.0 3.0 0.00 0.00 0.00 89 1014.0
20260510013542 56 216 2.0 3.0 0.00 0.00 0.00 89 1014.0
20260510013042 56 222 2.0 3.0 0.00 0.00 0.00 90 1014.0
20260510012542 56 243 3.0 3.0 0.00 0.00 0.00 90 1014.0
20260510011542 55 243 2.0 5.0 0.00 0.00 0.00 91 1014.0
20260510011043 55 258 3.0 4.0 0.00 0.00 0.00 91 1014.0
20260510010542 55 257 2.0 3.0 0.00 0.00 0.00 91 1014.0
20260510010042 54 254 2.0 4.0 0.00 0.00 0.00 91 1015.0
20260510005542 54 232 3.0 5.0 0.00 0.00 0.00 91 1014.0
20260510005042 54 267 0.0 3.0 0.00 0.00 0.00 91 1014.0
20260510004542 54 310 1.0 5.0 0.00 0.00 0.00 91 1014.0
20260510004043 55 186 2.0 3.0 0.00 0.00 0.00 91 1014.0
20260510003542 55 170 2.0 4.0 0.00 0.00 0.00 91 1015.0
20260510003043 55 132 2.0 2.0 0.00 0.00 0.00 91 1014.0
20260510002542 56 182 1.0 3.0 0.00 0.00 0.00 90 1014.0
20260510002042 56 157 2.0 2.0 0.00 0.00 0.00 90 1014.0
20260510001543 56 224 2.0 3.0 0.00 0.00 0.00 91 1014.0
20260510001042 56 193 0.0 3.0 0.00 0.00 0.00 90 1014.0
20260510000543 56 224 2.0 4.0 0.00 0.00 0.00 90 1014.0
20260510000042 56 217 2.0 3.0 0.00 0.00 0.42 90 1015.0
20260509235542 57 224 2.0 3.0 0.00 0.00 0.42 90 1015.0
20260509235042 57 173 0.0 3.0 0.00 0.00 0.42 90 1015.0
20260509234543 57 235 2.0 3.0 0.00 0.00 0.42 90 1015.0
20260509234043 57 216 0.0 2.0 0.00 0.00 0.42 90 1014.0
20260509233542 57 233 0.0 1.0 0.00 0.00 0.42 90 1015.0
20260509233042 57 197 0.0 2.0 0.00 0.00 0.42 90 1015.0
20260509232542 57 172 1.0 2.0 0.00 0.00 0.42 89 1015.0
20260509232043 58 185 1.0 1.0 0.00 0.00 0.42 89 1015.0
20260509231543 58 188 1.0 2.0 0.00 0.00 0.42 89 1015.0
20260509231042 58 211 1.0 2.0 0.00 0.00 0.42 90 1015.0
20260509230542 58 230 0.0 1.0 0.00 0.00 0.42 90 1015.0
20260509230043 58 179 2.0 3.0 0.00 0.00 0.42 90 1015.0
20260509225542 58 203 0.0 2.0 0.00 0.00 0.42 90 1015.0
20260509225042 58 227 2.0 3.0 0.00 0.00 0.42 90 1015.0
20260509224542 58 218 0.0 2.0 0.00 0.00 0.42 90 1015.0
20260509224042 58 258 0.0 3.0 0.00 0.00 0.42 91 1015.0
20260509223542 58 250 2.0 2.0 0.00 0.00 0.42 91 1015.0
20260509223043 57 258 2.0 3.0 0.00 0.00 0.42 91 1015.0
20260509222542 57 231 2.0 5.0 0.00 0.00 0.42 91 1015.0
20260509222042 57 206 3.0 5.0 0.00 0.00 0.42 91 1015.0
20260509221543 57 194 3.0 3.0 0.00 0.00 0.42 91 1015.0
20260509221042 57 253 2.0 4.0 0.00 0.00 0.42 92 1015.0
20260509220542 57 215 3.0 4.0 0.00 0.00 0.42 92 1015.0
20260509220042 57 168 3.0 4.0 0.00 0.00 0.42 92 1015.0
20260509215542 57 250 0.0 2.0 0.00 0.00 0.42 92 1015.0
20260509215042 57 178 2.0 4.0 0.00 0.00 0.42 92 1015.0
20260509214543 57 212 3.0 3.0 0.00 0.00 0.42 92 1015.0
20260509214042 58 216 0.0 3.0 0.00 0.00 0.42 92 1015.0
20260509213542 58 182 2.0 2.0 0.00 0.00 0.42 92 1015.0
20260509213042 58 176 2.0 3.0 0.00 0.00 0.42 92 1015.0
20260509212542 57 183 2.0 3.0 0.00 0.00 0.42 92 1015.0
20260509212042 58 167 2.0 3.0 0.00 0.00 0.42 92 1015.0
20260509211543 58 150 2.0 3.0 0.00 0.00 0.42 92 1015.0
20260509211042 58 139 0.0 3.0 0.00 0.00 0.42 93 1015.0
20260509210543 58 171 3.0 3.0 0.00 0.00 0.42 93 1015.0
20260509210042 58 176 2.0 3.0 0.00 0.00 0.42 93 1015.0
20260509205543 58 166 2.0 4.0 0.00 0.00 0.42 93 1015.0
20260509205043 58 168 2.0 2.0 0.00 0.00 0.42 93 1015.0
20260509204542 58 273 1.0 1.0 0.00 0.00 0.42 93 1015.0
20260509204042 58 4 1.0 2.0 0.00 0.00 0.42 93 1015.0
20260509203542 58 177 0.0 3.0 0.00 0.00 0.42 93 1015.0
20260509203042 58 168 3.0 4.0 0.00 0.00 0.42 93 1015.0
20260509202542 58 163 3.0 3.0 0.00 0.00 0.42 93 1015.0
20260509202042 58 150 2.0 4.0 0.00 0.00 0.42 93 1014.0
20260509201542 58 155 2.0 4.0 0.00 0.00 0.42 93 1014.0
20260509201043 58 148 0.0 3.0 0.00 0.00 0.42 93 1014.0
20260509200543 58 131 3.0 5.0 0.00 0.00 0.42 93 1014.0
20260509200042 58 159 2.0 4.0 0.00 0.00 0.42 92 1014.0
20260509195542 58 152 3.0 4.0 0.00 0.00 0.42 92 1014.0
20260509195042 58 158 2.0 3.0 0.00 0.00 0.42 92 1014.0
20260509194542 58 129 2.0 3.0 0.00 0.00 0.42 92 1014.0
20260509194042 58 154 3.0 3.0 0.00 0.00 0.42 92 1014.0
20260509193542 59 141 2.0 5.0 0.00 0.00 0.42 92 1014.0
20260509193042 59 181 2.0 4.0 0.00 0.00 0.42 91 1013.0
20260509192542 59 179 1.0 2.0 0.00 0.00 0.42 91 1013.0
20260509192042 59 139 3.0 4.0 0.00 0.00 0.42 91 1013.0
20260509191542 59 136 3.0 4.0 0.00 0.00 0.42 91 1013.0
20260509191042 59 70 0.0 4.0 0.00 0.00 0.42 90 1013.0
20260509190542 59 100 3.0 4.0 0.00 0.00 0.42 90 1013.0
20260509190043 60 128 2.0 5.0 0.00 0.00 0.42 89 1013.0
20260509185543 60 159 4.0 4.0 0.00 0.00 0.42 89 1013.0
20260509185043 60 128 3.0 5.0 0.00 0.00 0.42 88 1013.0
20260509184542 61 137 5.0 5.0 0.00 0.00 0.42 87 1013.0
20260509184042 61 131 3.0 5.0 0.00 0.00 0.42 85 1013.0
20260509183542 62 110 1.0 3.0 0.00 0.00 0.42 83 1013.0
20260509183042 62 73 2.0 3.0 0.00 0.00 0.42 82 1013.0
20260509182543 63 141 2.0 3.0 0.00 0.00 0.42 80 1012.0
20260509182042 62 125 1.0 1.0 0.00 0.00 0.42 83 1012.0
20260509181542 61 128 0.0 3.0 0.00 0.00 0.42 85 1013.0
20260509181042 61 146 3.0 4.0 0.00 0.00 0.42 85 1012.0
20260509180542 61 109 0.0 2.0 0.00 0.00 0.42 88 1012.0
20260509180042 60 30 1.0 2.0 0.00 0.00 0.42 89 1012.0
20260509175543 60 38 1.0 2.0 0.00 0.00 0.42 89 1012.0
20260509175042 60 92 1.0 1.0 0.00 0.00 0.42 89 1012.0
20260509174546 60 180 1.0 2.0 0.00 0.00 0.42 89 1012.0
20260509174042 60 173 0.0 3.0 0.00 0.00 0.42 90 1012.0
20260509173543 60 229 0.0 2.0 0.00 0.00 0.42 91 1012.0
20260509173043 60 184 3.0 3.0 0.00 0.00 0.42 91 1012.0
20260509172543 60 336 1.0 3.0 0.00 0.00 0.42 91 1012.0
20260509172042 60 173 0.0 2.0 0.00 0.00 0.42 92 1012.0
20260509171543 59 118 2.0 4.0 0.00 0.00 0.42 92 1012.0
20260509171042 59 57 2.0 2.0 0.00 0.00 0.42 92 1012.0
20260509170542 59 351 3.0 6.0 0.00 0.00 0.42 92 1012.0
20260509170042 59 345 3.0 5.0 0.00 0.00 0.42 93 1012.0
20260509165544 59 212 2.0 4.0 0.00 0.00 0.42 93 1012.0
20260509165043 59 318 2.0 6.0 0.00 0.00 0.42 93 1011.0
20260509164543 59 297 4.0 6.0 0.00 0.00 0.42 94 1012.0
20260509164042 59 8 3.0 6.0 0.00 0.00 0.42 94 1012.0
20260509163542 59 46 2.0 5.0 0.02 0.00 0.42 94 1012.0
20260509163042 59 54 5.0 5.0 0.02 0.00 0.42 94 1013.0
20260509162542 59 37 4.0 4.0 0.05 0.00 0.42 94 1013.0
20260509162043 59 51 1.0 3.0 0.02 0.00 0.41 94 1013.0
20260509161543 59 22 4.0 4.0 0.02 0.00 0.41 94 1013.0
20260509160555 59 132 2.0 5.0 0.02 0.00 0.40 94 1013.0
20260509160042 59 48 6.0 6.0 0.05 0.00 0.40 94 1013.0
20260509155542 59 17 3.0 3.0 0.07 0.00 0.39 94 1013.0
20260509155042 59 121 0.0 4.0 0.14 0.00 0.39 94 1013.0
20260509154542 59 187 0.0 6.0 0.14 0.00 0.38 93 1013.0
20260509154043 59 135 2.0 4.0 0.17 0.00 0.37 94 1014.0
20260509153542 60 6 3.0 6.0 0.21 0.00 0.35 93 1014.0
20260509153044 60 9 5.0 5.0 0.21 0.00 0.34 93 1014.0
20260509152542 60 11 3.0 5.0 0.21 0.00 0.32 93 1014.0
20260509152043 60 61 0.0 4.0 0.26 0.00 0.30 93 1014.0
20260509151543 60 302 0.0 2.0 0.38 0.00 0.27 93 1014.0
20260509151043 60 62 6.0 7.0 0.47 0.00 0.24 93 1014.0
20260509150543 60 41 5.0 5.0 0.40 0.00 0.20 92 1014.0
20260509150042 60 56 9.0 9.0 0.26 0.00 0.16 92 1014.0
20260509145543 60 122 2.0 9.0 0.26 0.00 0.13 91 1014.0
20260509145042 60 87 6.0 7.0 0.24 0.00 0.11 91 1014.0
20260509144542 61 92 8.0 10.0 0.19 0.00 0.08 90 1014.0
20260509144042 61 110 5.0 9.0 0.17 0.00 0.07 89 1014.0
20260509143543 61 103 8.0 11.0 0.09 0.00 0.05 88 1014.0
20260509143042 62 86 7.0 8.0 0.05 0.00 0.04 87 1014.0
20260509142543 62 120 9.0 9.0 0.02 0.00 0.03 85 1014.0
20260509142043 62 114 3.0 8.0 0.00 0.00 0.03 83 1013.0
20260509141542 62 87 4.0 5.0 0.00 0.00 0.03 81 1013.0
20260509141042 62 110 2.0 2.0 0.00 0.00 0.03 81 1013.0
20260509140542 62 92 3.0 5.0 0.00 0.00 0.03 81 1012.0
20260509140043 62 17 3.0 4.0 0.00 0.00 0.03 81 1012.0
20260509135543 62 277 2.0 4.0 0.00 0.00 0.03 81 1012.0
20260509135042 62 304 1.0 3.0 0.00 0.00 0.03 82 1012.0
20260509134544 62 128 3.0 3.0 0.00 0.00 0.03 82 1012.0
20260509134042 62 337 3.0 5.0 0.00 0.00 0.03 82 1012.0
20260509133543 62 332 5.0 5.0 0.02 0.00 0.03 82 1012.0
20260509133043 62 15 3.0 5.0 0.02 0.00 0.03 82 1012.0
20260509132542 62 346 3.0 9.0 0.02 0.00 0.02 81 1012.0
20260509132042 62 15 1.0 5.0 0.05 0.00 0.02 80 1013.0
20260509131542 62 74 3.0 4.0 0.05 0.00 0.02 79 1013.0
20260509131042 63 264 0.0 6.0 0.02 0.00 0.01 77 1013.0
20260509130543 63 28 2.0 5.0 0.00 0.00 0.01 76 1013.0
20260509130042 63 52 9.0 10.0 0.00 0.00 0.01 73 1014.0
20260509125543 64 46 2.0 4.0 0.00 0.00 0.01 72 1013.0
20260509125043 64 357 3.0 4.0 0.00 0.00 0.01 71 1014.0
20260509124542 64 77 0.0 4.0 0.00 0.00 0.01 71 1014.0
20260509124042 64 12 3.0 4.0 0.00 0.00 0.01 71 1014.0
20260509123542 64 349 1.0 2.0 0.00 0.00 0.01 72 1014.0
20260509123042 63 43 3.0 8.0 0.00 0.00 0.01 72 1014.0
20260509122542 63 28 4.0 5.0 0.00 0.00 0.01 72 1014.0
20260509122042 64 346 7.0 8.0 0.00 0.00 0.01 71 1014.0
20260509121543 64 87 2.0 4.0 0.00 0.00 0.01 71 1014.0
20260509121048 64 14 4.0 5.0 0.00 0.00 0.01 71 1014.0
20260509120542 64 357 3.0 7.0 0.00 0.00 0.01 71 1013.0
20260509120042 64 21 3.0 9.0 0.00 0.00 0.01 72 1014.0
20260509115543 64 330 6.0 10.0 0.00 0.00 0.01 72 1014.0
20260509115042 64 58 4.0 10.0 0.00 0.00 0.01 73 1014.0
20260509114542 64 29 10.0 12.0 0.00 0.00 0.01 72 1014.0
20260509114043 64 56 4.0 11.0 0.00 0.00 0.01 73 1014.0
20260509113542 64 54 6.0 10.0 0.00 0.00 0.01 74 1014.0
20260509113043 64 335 3.0 9.0 0.00 0.00 0.01 76 1014.0
20260509112542 64 49 4.0 9.0 0.00 0.00 0.01 77 1014.0
20260509112042 64 21 3.0 11.0 0.00 0.00 0.01 77 1014.0
20260509111543 64 97 3.0 6.0 0.00 0.00 0.01 77 1014.0
20260509111043 64 92 5.0 6.0 0.00 0.00 0.01 76 1014.0
20260509110542 64 307 2.0 8.0 0.00 0.00 0.01 76 1014.0
20260509110043 64 41 2.0 5.0 0.00 0.00 0.01 76 1014.0
20260509105542 64 61 3.0 8.0 0.00 0.00 0.01 76 1014.0
20260509105043 64 7 2.0 6.0 0.00 0.00 0.01 76 1014.0
20260509104542 64 33 8.0 9.0 0.00 0.00 0.01 76 1014.0
20260509104042 64 60 3.0 7.0 0.00 0.00 0.01 76 1014.0
20260509103542 64 3 2.0 3.0 0.00 0.00 0.01 76 1014.0
20260509103043 64 77 5.0 13.0 0.00 0.00 0.01 75 1014.0
20260509102543 64 53 9.0 14.0 0.00 0.00 0.01 75 1015.0
20260509102042 64 16 5.0 13.0 0.00 0.00 0.01 76 1015.0
20260509101542 64 65 11.0 13.0 0.00 0.00 0.01 77 1015.0
20260509101042 64 45 8.0 13.0 0.00 0.00 0.01 76 1015.0
20260509100542 64 53 9.0 12.0 0.00 0.00 0.01 76 1015.0
20260509100042 64 41 3.0 11.0 0.00 0.00 0.01 77 1015.0
20260509095542 64 55 11.0 14.0 0.00 0.00 0.01 76 1015.0
20260509095042 64 73 3.0 7.0 0.00 0.00 0.01 75 1014.0
20260509094542 65 70 3.0 5.0 0.00 0.00 0.01 74 1014.0
20260509094043 65 68 0.0 6.0 0.00 0.00 0.01 73 1014.0
20260509093542 65 92 2.0 5.0 0.00 0.00 0.01 73 1014.0
20260509093042 64 34 3.0 8.0 0.00 0.00 0.01 73 1015.0
20260509092543 65 69 7.0 9.0 0.00 0.00 0.01 73 1015.0
20260509092042 65 61 1.0 12.0 0.00 0.00 0.01 73 1014.0
20260509091543 65 55 4.0 4.0 0.00 0.00 0.01 72 1014.0
20260509091042 65 341 0.0 6.0 0.00 0.00 0.01 72 1014.0
20260509090542 65 36 3.0 7.0 0.00 0.00 0.01 73 1014.0
20260509090042 64 334 3.0 7.0 0.00 0.00 0.01 74 1014.0
20260509085542 64 324 3.0 4.0 0.00 0.00 0.01 74 1014.0
20260509085042 64 44 3.0 5.0 0.00 0.00 0.01 74 1014.0
20260509084542 64 30 6.0 6.0 0.00 0.00 0.01 74 1014.0
20260509084043 64 282 2.0 4.0 0.00 0.00 0.01 74 1014.0
20260509083542 64 330 3.0 3.0 0.00 0.00 0.01 75 1014.0
20260509083043 64 7 4.0 5.0 0.00 0.00 0.01 75 1014.0
20260509082542 64 53 1.0 7.0 0.00 0.00 0.01 75 1014.0
20260509082043 63 310 2.0 6.0 0.00 0.00 0.01 75 1014.0
20260509081542 63 49 2.0 5.0 0.00 0.00 0.01 76 1014.0
20260509081042 63 251 3.0 5.0 0.00 0.00 0.01 77 1014.0
20260509080542 63 349 7.0 11.0 0.00 0.00 0.01 77 1014.0
20260509080042 63 328 5.0 7.0 0.00 0.00 0.01 78 1014.0
20260509075543 62 29 3.0 5.0 0.00 0.00 0.01 79 1014.0